Stations météo

réclame
Mon MeteoGroup
Le Touquet, France (7003): Température de l'air & dewpoint: 11.01.2018 01:00:00 - 17.01.2018 01:00:00 (CET)Le Touquet, France (7003): Température de l'air 5cm: 11.01.2018 01:00:00 - 17.01.2018 01:00:00 (CET)Le Touquet, France (7003): Vitesse du vent & gusts: 11.01.2018 01:00:00 - 17.01.2018 01:00:00 (CET)Le Touquet, France (7003): Direction du vent: 11.01.2018 01:00:00 - 17.01.2018 01:00:00 (CET)Le Touquet, France (7003): reduced air pressure: 11.01.2018 01:00:00 - 17.01.2018 01:00:00 (CET)Le Touquet, France (7003): visibility: 11.01.2018 01:00:00 - 17.01.2018 01:00:00 (CET)Le Touquet, France (7003): Ensoleillement: 11.01.2018 01:00:00 - 17.01.2018 01:00:00 (CET)Le Touquet, France (7003): Quantités de précipitations: 11.01.2018 01:00:00 - 17.01.2018 01:00:00 (CET)
Date & Time tt [°C] td [°C] tt 5cm [°C] ff [km/h] ff [knt] fx [km/h] fx [knt] dd ppp [hPa] vv [km] sd [min] rr [mm]
17.01.2018 01:00:00 6,8 -0,2 4,1 31 17 64 35 WNW 997,2 40 0 0,0
17.01.2018 00:00:00 6,6 -0,6 3,9 28 15 69 37 WNW 997,1 47 0 0,0
16.01.2018 23:00:00 6,2 0,9 3,7 30 16 54 29 WNW 996,5 54 0 0,0
16.01.2018 22:00:00 6,2 1,9 4,2 24 13 67 36 W 996,5 50 0 0,0
16.01.2018 21:00:00 7,0 2,7 5,0 29 15 56 31 W 996,4 10 0 0,2
16.01.2018 20:00:00 7,4 2,3 5,3 22 12 46 25 W 996,7 52 0 0,0
16.01.2018 19:00:00 6,7 2,0 5,1 19 10 56 30 WSW 997,2 50 0 0,0
16.01.2018 18:00:00 7,6 0,8 5,4 24 13 53 29 W 997,9 39 0 0,0
16.01.2018 17:00:00 7,5 1,3 5,6 26 14 58 31 W 998,0 20 1 0,0
16.01.2018 16:00:00 8,0 0,5 5,4 29 15 61 33 W 998,2 20 15 0,0
16.01.2018 15:00:00 8,0 2,0 6,4 27 14 59 32 W 998,2 20 4 0,0
16.01.2018 14:00:00 8,3 1,2 7,0 30 16 58 32 W 998,4 20 0 0,0
16.01.2018 13:00:00 8,0 2,2 6,5 30 16 61 33 W 998,9 20 24 0,0
16.01.2018 12:00:00 7,9 3,0 7,1 27 15 59 32 W 999,1 28 60 0,0
16.01.2018 11:00:00 7,9 1,5 6,4 31 17 67 36 WNW 998,5 19 38 0,0
16.01.2018 10:00:00 8,5 0,5 5,4 34 19 66 35 WNW 997,9 20 18 0,0
16.01.2018 09:00:00 8,2 3,0 4,8 29 16 61 33 W 997,2 19 0 0,0
16.01.2018 08:00:00 8,0 3,5 5,1 30 16 58 32 WNW 996,0 18 0 0,0
16.01.2018 07:00:00 8,5 3,7 5,9 27 14 67 36 W 995,5 20 0 0,0
16.01.2018 06:00:00 8,9 5,1 6,6 23 13 51 28 W 995,6 14 0 0,0
16.01.2018 05:00:00 8,5 5,9 5,3 24 13 55 30 W 995,4 13 0 1,6
16.01.2018 04:00:00 9,2 5,7 6,7 21 12 51 27 W 995,8 13 0 0,0
16.01.2018 03:00:00 9,0 5,6 6,2 23 13 44 24 W 995,9 15 0 0,0
16.01.2018 02:00:00 8,5 5,2 5,1 20 11 45 24 W 996,5 18 0 0,2
16.01.2018 01:00:00 7,9 4,7 6,0 18 10 48 26 W 997,5 44 0 0,2
16.01.2018 00:00:00 9,3 5,8 6,7 18 10 62 34 W 997,9 14 0 0,0
15.01.2018 23:00:00 9,0 5,2 6,2 22 12 50 27 W 997,7 15 0 0,0
15.01.2018 22:00:00 8,8 4,8 6,0 23 12 49 27 W 997,5 19 0 0,0
15.01.2018 21:00:00 9,0 5,0 6,4 27 15 60 33 W 997,2 18 0 0,0
15.01.2018 20:00:00 9,5 6,2 7,3 29 15 59 32 W 996,6 16 0 0,0
15.01.2018 19:00:00 9,7 8,6 8,1 23 13 45 24 W 995,4 9 0 0,0
15.01.2018 18:00:00 9,9 8,7 8,8 25 13 51 27 W 994,7 9 0 0,4
15.01.2018 17:00:00 9,8 9,3 8,4 24 13 47 26 WSW 994,5 3,4 0 0,2
15.01.2018 16:00:00 8,7 8,4 7,9 27 15 61 33 SW 995,1 8 0 0,6
15.01.2018 15:00:00 8,1 7,7 7,3 31 17 68 37 SSW 995,7 6 0 1,2
15.01.2018 14:00:00 7,8 7,2 6,7 30 16 56 30 SSW 997,3 3,4 0 2,6
15.01.2018 13:00:00 7,1 6,5 6,6 27 14 54 29 S 999,9 5 0 1,4
15.01.2018 12:00:00 7,2 6,0 6,0 24 13 53 29 S 1002,7 5 0 0,0
15.01.2018 11:00:00 6,7 5,5 6,0 27 14 56 30 S 1004,4 3,1 0 0,6
15.01.2018 10:00:00 7,0 5,1 5,8 21 11 43 23 S 1006,1 13 0 0,2
15.01.2018 09:00:00 6,9 4,7 5,4 20 11 41 22 S 1007,4 16 0 0,0
15.01.2018 08:00:00 6,6 4,3 5,8 18 10 46 25 SSW 1009,1 14 0 0,0
15.01.2018 07:00:00 6,5 4,5 5,9 23 12 39 21 SSW 1010,2 11 0 0,0
15.01.2018 06:00:00 6,3 4,8 5,1 18 10 35 19 SSW 1011,7 9 0 0,0
15.01.2018 05:00:00 5,3 5,0 3,8 18 10 34 18 SSW 1013,2 7 0 0,0
15.01.2018 04:00:00 4,8 4,5 2,7 18 10 34 19 SSW 1013,7 3,7 0 0,0
15.01.2018 03:00:00 3,6 3,2 3,5 14 8 30 16 S 1014,8 2,2 0 0,0
15.01.2018 02:00:00 4,0 3,3 3,9 19 10 39 21 SSW 1016,0 3,0 0 0,0
15.01.2018 01:00:00 5,7 3,2 3,8 13 7 23 13 SSW 1016,4 11 0 0,0
15.01.2018 00:00:00 5,7 3,2 3,4 12 6 23 13 SSW 1016,9 8 0 0,0
14.01.2018 23:00:00 4,0 2,8 2,9 7 4 11 6 S 1017,6 4,4 0 0,0
14.01.2018 22:00:00 3,6 2,3 2,9 5 3 10 5 SSE 1017,9 3,9 0 0,0
14.01.2018 21:00:00 3,5 2,5 2,4 6 4 13 7 S 1018,2 4,6 0 0,0
14.01.2018 20:00:00 2,7 2,0 -0,1 3 1 6 4 SSE 1018,4 3,8 0 0,0
14.01.2018 19:00:00 1,2 0,5 -2,2 5 3 9 5 SE 1017,7 3,2 0 0,0
14.01.2018 18:00:00 1,4 0,2 -1,6 3 2 5 3 S 1018,1 3,3 0 0,0
14.01.2018 17:00:00 4,0 1,0 -0,6 0 0 6 3 N 1018,1 6 14 0,0
14.01.2018 16:00:00 6,0 1,5 3,0 2 1 5 3 WSW 1017,9 8 60 0,0
14.01.2018 15:00:00 5,9 2,2 6,2 4 2 11 6 SE 1017,8 8 55 0,0
14.01.2018 14:00:00 4,8 1,5 6,7 8 5 13 7 ESE 1017,9 8 60 0,0
14.01.2018 13:00:00 4,8 1,3 4,7 8 5 14 8 SSE 1018,2 8 60 0,0
14.01.2018 12:00:00 3,7 0,9 3,6 11 6 17 9 SE 1018,5 6 60 0,0
14.01.2018 11:00:00 2,7 1,1 -1,3 9 5 14 7 E 1018,5 7 29 0,0
14.01.2018 10:00:00 0,6 -0,1 -1,9 2 1 8 5 ESE 1018,4 3,0 0 0,0
14.01.2018 09:00:00 1,2 0,0 -1,6 6 3 11 6 SE 1018,2 4,8 0 0,0
14.01.2018 08:00:00 1,7 0,2 -0,3 7 4 18 10 E 1017,8 7 0 0,0
14.01.2018 07:00:00 2,1 0,3 0,9 11 6 21 12 ESE 1017,6 6 0 0,0
14.01.2018 06:00:00 2,5 0,6 0,6 13 7 20 11 ENE 1017,6 7 0 0,0
14.01.2018 05:00:00 2,7 0,6 1,3 11 6 19 10 ENE 1018,0 7 0 0,0
14.01.2018 04:00:00 2,7 0,6 1,3 9 5 22 12 E 1018,2 8 0 0,0
14.01.2018 03:00:00 2,9 0,5 1,5 15 8 24 13 ENE 1018,1 9 0 0,0
14.01.2018 02:00:00 2,9 0,5 0,7 13 7 19 10 ENE 1018,3 10 0 0,0
14.01.2018 01:00:00 3,2 0,4 0,9 10 5 21 11 E 1018,6 11 0 0,0
14.01.2018 00:00:00 3,2 0,3 1,2 8 5 18 10 E 1018,8 12 0 0,0
13.01.2018 23:00:00 3,6 0,5 1,7 10 6 34 18 E 1019,1 12 0 0,0
13.01.2018 22:00:00 4,5 1,0 3,6 18 10 33 18 ESE 1019,7 12 0 0,0
13.01.2018 21:00:00 4,4 1,4 3,6 18 10 32 17 SE 1019,9 11 0 0,0
13.01.2018 20:00:00 4,3 1,8 3,4 16 9 37 20 SE 1019,8 10 0 0,0
13.01.2018 19:00:00 4,4 1,8 2,6 18 10 29 16 ESE 1019,7 11 0 0,0
13.01.2018 18:00:00 3,9 1,4 2,6 20 11 34 18 SE 1019,6 10 0 0,0
13.01.2018 17:00:00 4,0 2,0 3,6 25 13 37 20 SE 1019,8 9 0 0,0
13.01.2018 16:00:00 4,0 2,7 3,8 22 12 37 20 SE 1019,9 6 0 0,0
13.01.2018 15:00:00 4,4 3,1 4,4 24 13 35 19 SE 1020,2 6 0 0,0
13.01.2018 14:00:00 4,8 2,8 4,8 20 11 36 19 SE 1020,8 8 0 0,0
13.01.2018 13:00:00 5,1 3,3 5,2 22 12 32 17 SE 1021,5 8 0 0,0
13.01.2018 12:00:00 5,3 3,3 5,1 22 12 34 19 SE 1022,1 7 0 0,0
13.01.2018 11:00:00 4,7 3,8 3,4 13 7 19 10 ESE 1022,2 4,0 0 0,0
13.01.2018 10:00:00 3,4 3,0 1,0 10 6 17 9 SE 1022,3 2,6 0 0,0
13.01.2018 09:00:00 2,1 1,8 -0,9 13 7 19 11 ESE 1022,4 2,0 0 0,0
13.01.2018 08:00:00 1,4 1,0 -1,6 12 7 16 8 ESE 1022,3 1,8 0 0,0
13.01.2018 07:00:00 1,7 1,1 -1,8 7 4 9 5 SSE 1022,5 2,4 0 0,0
13.01.2018 06:00:00 1,8 1,1 -1,5 6 4 11 6 ESE 1022,7 2,9 0 0,0
13.01.2018 05:00:00 2,0 1,1 -1,8 10 5 13 7 ESE 1023,1 3,2 0 0,0
13.01.2018 04:00:00 3,2 2,0 -1,6 5 3 10 6 ESE 1023,6 3,1 0 0,0
13.01.2018 03:00:00 4,6 2,8 3,0 9 5 18 10 SE 1024,1 6 0 0,0
13.01.2018 02:00:00 5,3 3,1 4,5 12 6 22 12 SSE 1024,7 8 0 0,0
13.01.2018 01:00:00 5,4 3,4 4,6 9 5 22 12 SSE 1025,3 9 0 0,0
13.01.2018 00:00:00 5,5 3,7 4,8 11 6 21 11 SSE 1025,5 8 0 0,0
12.01.2018 23:00:00 5,6 3,6 4,9 14 8 22 12 SE 1025,7 8 0 0,0
12.01.2018 22:00:00 5,8 4,1 5,1 10 5 23 12 SE 1026,1 6 0 0,0
12.01.2018 21:00:00 5,9 4,7 5,2 8 5 13 7 SSE 1026,1 6 0 0,0
12.01.2018 20:00:00 5,9 5,0 5,2 8 4 10 5 SE 1025,9 3,0 0 0,0
12.01.2018 19:00:00 6,1 4,9 5,3 3 1 11 6 SSE 1026,2 3,7 0 0,0
12.01.2018 18:00:00 6,2 4,8 5,4 6 4 12 7 SE 1026,3 6 0 0,0
12.01.2018 17:00:00 6,4 5,0 5,7 9 5 11 6 E 1026,3 7 0 0,0
12.01.2018 16:00:00 6,7 5,5 6,9 3 2 10 5 SE 1026,4 8 0 0,0
12.01.2018 15:00:00 6,6 5,5 6,7 6 4 14 8 S 1026,6 9 0 0,0
12.01.2018 14:00:00 6,5 5,9 7,2 9 5 17 9 SSE 1026,6 7 0 0,0
12.01.2018 13:00:00 6,4 6,1 6,6 9 5 23 13 SE 1026,9 8 0 0,0
12.01.2018 12:00:00 5,7 5,7 6,2 10 6 16 9 SE 1027,2 2,8 40 0,0
12.01.2018 11:00:00 5,4 5,4 4,4 6 3 9 5 SE 1027,4 2,2 17 0,0
12.01.2018 10:00:00 4,6 4,6 3,7 3 2 7 4 SSE 1027,2 1,8 0 0,0
12.01.2018 09:00:00 4,4 4,4 3,9 5 3 7 4 SE 1026,9 1,4 0 0,0
12.01.2018 08:00:00 4,5 4,5 4,3 4 2 6 3 SSE 1027,2 1,0 0 0,0
12.01.2018 07:00:00 4,3 4,3 4,2 0 0 4 2 N 1027,0 0,7 0 0,0
12.01.2018 06:00:00 4,2 4,2 3,8 4 2 5 3 NNE 1026,9 2,3 0 0,0
12.01.2018 05:00:00 3,8 3,8 3,4 2 1 16 9 SE 1026,3 1,2 0 0,0
12.01.2018 04:00:00 3,4 3,4 3,4 10 5 18 10 E 1026,0 1,1 0 0,0
12.01.2018 03:00:00 4,0 4,0 4,0 6 4 11 6 E 1025,8 1,6 0 0,0
12.01.2018 02:00:00 4,2 4,2 4,2 4 2 12 6 ENE 1025,7 1,3 0 0,0
12.01.2018 01:00:00 4,5 4,5 3,9 4 2 13 7 ENE 1025,4 0,3 0 0,0
12.01.2018 00:00:00 4,7 4,7 0,1 3 1 6 4 NE 1025,0 2,1 0 0,0
11.01.2018 23:00:00 3,6 3,6 -0,5 7 4 12 7 SE 1024,4 1,2 0 0,0
11.01.2018 22:00:00 4,0 4,0 -0,2 0 0 12 6 N 1024,0 0,8 0 0,0
11.01.2018 21:00:00 5,1 5,1 2,1 6 4 10 6 NNE 1023,7 1,7 0 0,0
11.01.2018 20:00:00 5,4 5,4 1,9 8 4 12 6 NNE 1023,1 2,5 0 0,0
11.01.2018 19:00:00 3,2 3,2 0,5 8 4 10 6 NNW 1022,3 2,2 0 0,0
11.01.2018 18:00:00 3,0 3,0 -0,1 0 0 3 1 N 1021,3 0,1 0 0,0
11.01.2018 17:00:00 4,5 4,5 0,8 0 0 5 3 N 1020,3 0,1 0 0,0
11.01.2018 16:00:00 5,4 5,4 5,6 0 0 7 4 N 1019,8 2,3 0 0,0
11.01.2018 15:00:00 4,6 4,6 5,6 4 2 6 3 SSE 1019,4 1,3 0 0,0
11.01.2018 14:00:00 3,9 3,9 5,0 2 1 6 4 ESE 1018,5 0,2 0 0,0
11.01.2018 13:00:00 2,8 2,8 4,1 5 3 10 5 SSE 1018,3 0,2 0 0,0
11.01.2018 12:00:00 2,0 2,0 2,9 5 3 10 5 ESE 1017,7 0,1 0 0,0
11.01.2018 11:00:00 1,0 1,0 0,0 5 3 9 5 SE 1017,0 0,2 0 0,0
11.01.2018 10:00:00 0,5 0,5 -0,2 5 3 10 6 SE 1016,1 0,6 0 0,0
11.01.2018 09:00:00 0,6 0,6 -0,3 7 4 13 7 SSE 1015,1 0,5 0 0,0
11.01.2018 08:00:00 1,0 1,0 0,1 9 5 14 8 SE 1014,1 0,2 0 0,0
11.01.2018 07:00:00 1,0 1,0 -0,9 10 5 16 9 ESE 1013,2 0,1 0 0,0
11.01.2018 06:00:00 0,8 0,8 -1,5 8 4 11 6 SSE 1012,3 0,5 0 0,0
11.01.2018 05:00:00 0,9 0,8 -1,4 6 3 9 5 SSE 1011,4 1,5 0 0,0
11.01.2018 04:00:00 1,4 1,3 -1,0 6 3 9 5 SSE 1010,9 0,2 0 0,0
11.01.2018 03:00:00 1,9 1,8 -1,3 6 3 8 5 SE 1010,6 1,5 0 0,0
11.01.2018 02:00:00 2,8 2,7 -0,5 6 3 10 5 SE 1009,9 2,5 0 0,0
11.01.2018 01:00:00 3,2 3,1 -0,4 8 5 10 5 SE 1009,5 2,1 0 0,0

tt = Température de l'air
td = dewpoint
tt 5cm = Température de l'air 5cm
ff = Vitesse du vent
fx = gusts
dd = Direction du vent
ppp = reduced air pressure
vv = visibility
sd = Ensoleillement
rr = Quantités de précipitations

stations d'obs. à proximité